Terug naar catalogus

HEAD-3B

ActiefCommunicatieLEO
NORAD 57627·PAYLOAD·🇨🇳 China

Gelanceerd Aug 14, 2023 vanaf Xichang Satellite Launch Center

Loading…

Volgende Passages (komende 24 uur)

TLE

VersSource: Space-Track

Epoch: Sep 14, 2026, 10:05 UTC

1 57627U 23121B   26257.42016586  .00000374  00000-0  10647-3 0  9995
2 57627  45.0016 225.4487 0006137   0.1119 359.9739 14.61695824164727

Volg HEAD-3B in realtime met AllMySat

Download on the App Store